Location: Forst
(46.9333°N, 15.4333°E)
Time: 04:53:57
(UTC+00:00)

Cosmos 2366 rocket - Pass Details

Date: 01 December 2020
Orbit: 955 x 997 km, 82.9° (Epoch: 18 January)

Event Time Altitude Azimuth Distance (km) Brightness Sun altitude
Rises 16:29:21 0° 351° (N) 3,667 6.9 -12.9°
Reaches altitude 10° 16:31:52 10° 352° (N) 2,711 6.2 -13.3°
Maximum altitude 16:38:05 88° 81° (E) 966 3.9 -14.3°
Drops below altitude 10° 16:44:13 10° 172° (S) 2,677 6.4 -15.3°
Sets 16:46:42 0° 173° (S) 3,618 7.1 -15.7°
